« Back
NWS Peachtree City, Ga » Text Product » GA Regional Weather Roundup


Printer-friendly Version
Current Version              Previous Versions:   1  2  3  4  5  6  7  8  9  

Regional Weather Roundup

209
ASUS42 KFFC 280403
RWRGA
WEATHER ROUNDUP FOR GEORGIA
NATIONAL WEATHER SERVICE PEACHTREE CITY GA
1100 PM EST THU NOV 27 2014

NOTE: "FAIR" INDICATES FEW OR NO CLOUDS BELOW 12,000 FEET WITH NO
SIGNIFICANT WEATHER AND/OR OBSTRUCTIONS TO VISIBILITY.

* = USE WITH CAUTION. THE STATIONS MARKED WITH AN ASTERISK MAY NOT
REPORT WEATHER SUCH AS PRECIPITATION, FOG, OR THUNDER AND ARE NOT
QUALITY CONTROLLED BY NWS.

THE REMARK "TC" DENOTES TEMPERATURE READING IN DEGREES CELSIUS.

GAZ001>058-280500-
NORTH GEORGIA

CITY           SKY/WX    TMP DP  RH WIND       PRES   REMARKS
ATLANTA        PTCLDY    37  24  59 N14       30.37R WCI  28
ATHENS         CLEAR     35  26  69 W7        30.34R WCI  29
CHAMBLEE       CLEAR     35  22  58 NW9G18    30.37S WCI  28
PEACHTREE CITY CLEAR     37  25  61 NW9       30.38S WCI  30
ROME           CLEAR     34  24  67 N8        30.42R WCI  27
WEST ATLANTA   CLEAR     36  23  59 NW7       30.38R WCI  30
GAINESVILLE    CLEAR     34  22  61 NW10      30.35R WCI  26
CARTERSVILLE   CLEAR     34  22  61 N5        30.41R WCI  30


CITY           SKY/WX    TMP DP  RH WIND       PRES   REMARKS
DALTON*        PTCLDY    32  25  74 NW10      30.42R WCI  24
MARIETTA       CLEAR     35  23  62 NW9       30.37R WCI  27
KENNESAW*      PTCLDY    34  19  55 N9        30.39F WCI  26
$$

GAZ059>098-102>109-280500-
CENTRAL GEORGIA

CITY           SKY/WX    TMP DP  RH WIND       PRES   REMARKS
AUGUSTA-BUSH   CLEAR     39  27  62 NW8       30.33S WCI  33
AUGUSTA-DANIEL CLEAR     41  27  57 NW10      30.32S
COLUMBUS       CLEAR     37  29  72 NW5       30.41S WCI  33
MACON          CLEAR     34  28  79 W6        30.38R WCI  29
ROBINS AFB     CLEAR     37  28  71 NW8       30.37S WCI  31


CITY           SKY/WX    TMP DP  RH WIND       PRES   REMARKS
LAGRANGE*      CLEAR     33  30  87 CALM      30.40S
SYLVANIA*      CLEAR     41  34  75 NW6       30.33S
MILLEDGEVILLE* CLEAR     39  32  75 NW6       30.36S WCI  35
$$

GAZ099>101-110>166-280500-
SOUTH GEORGIA

CITY           SKY/WX    TMP DP  RH WIND       PRES   REMARKS
SAVANNAH       CLEAR     43  31  62 NW5       30.33R
VALDOSTA       CLEAR     41  33  73 CALM      30.37R
ALMA           CLEAR     41  30  65 NW6       30.36R
ST SIMONS      CLEAR     45  32  60 NW9       30.33R
FT STEWART     CLEAR     43  30  61 NW8       30.32S
ALBANY         CLEAR     40  30  67 N5        30.42R
HUNTER AFB     CLEAR     42  32  67 NW9       30.31R
MOODY AFB      CLEAR     41  32  70 NW7       30.36R
BRUNSWICK      CLEAR     43  32  65 CALM      30.34S


CITY           SKY/WX    TMP DP  RH WIND       PRES   REMARKS
BAINBRIDGE*    CLEAR     45  36  70 N6        30.41S
MOULTRIE*      CLEAR     43  34  70 N9        30.38S
VIDALIA*       CLEAR     41  32  70 NW6       30.35S
WAYCROSS*      CLEAR     43  35  73 N7        30.36R
DOUGLAS*       CLEAR     43  32  65 N7        30.38R
$$



USA.gov is the U.S. government's official web portal to all federal, state and local government web resources and services.